Time,TemperatureF,DewpointF,PressureIn,WindDirection,WindDirectionDegrees,WindSpeedMPH,WindSpeedGustMPH,Humidity,HourlyPrecipIn,Conditions,Clouds,dailyrainin,SolarRadiationWatts/m^2,SoftwareType,DateUTC
2013-06-26 00:04:00,64.9,63.4,29.70,South,183,3.0,5.0,95,0.00,CLR,CLR,0.00,0.0,WeatherDisplay:10.37,2013-06-26 05:04:00,
2013-06-26 00:09:00,64.8,63.3,29.70,South,183,3.0,5.0,95,0.00,CLR,CLR,0.00,0.0,WeatherDisplay:10.37,2013-06-26 05:09:00,
2013-06-26 00:14:00,64.7,63.2,29.71,South,183,4.0,4.0,95,0.00,CLR,,0.00,0.0,WeatherDisplay:10.37,2013-06-26 05:14:00,
2013-06-26 00:19:00,64.5,63.0,29.70,South,183,2.0,4.0,95,0.00,CLR,CLR,0.00,0.0,WeatherDisplay:10.37,2013-06-26 05:19:00,
2013-06-26 00:24:00,64.2,62.7,29.70,South,183,3.5,3.5,95,0.00,CLR,,0.00,0.0,WeatherDisplay:10.37,2013-06-26 05:24:00,
2013-06-26 00:29:00,64.2,63.0,29.70,South,183,3.0,5.0,96,0.00,CLR,CLR,0.00,0.0,WeatherDisplay:10.37,2013-06-26 05:29:00,
2013-06-26 00:34:00,64.0,62.5,29.70,South,183,3.5,3.5,95,0.00,CLR,,0.00,0.0,WeatherDisplay:10.37,2013-06-26 05:34:00,
2013-06-26 00:40:00,63.9,62.4,29.70,South,183,5.8,5.8,95,0.00,CLR,,0.00,0.0,WeatherDisplay:10.37,2013-06-26 05:40:00,
2013-06-26 00:45:00,64.2,63.0,29.70,South,183,3.5,3.5,96,0.00,CLR,,0.00,0.0,WeatherDisplay:10.37,2013-06-26 05:45:00,
2013-06-26 00:50:00,64.5,63.3,29.70,South,183,3.5,3.5,96,0.00,CLR,,0.00,0.0,WeatherDisplay:10.37,2013-06-26 05:50:00,
2013-06-26 00:55:00,64.5,63.3,29.70,South,183,3.5,3.5,96,0.00,CLR,,0.00,0.0,WeatherDisplay:10.37,2013-06-26 05:55:00,
2013-06-26 01:00:00,64.5,63.3,29.70,South,183,3.5,3.5,96,0.00,CLR,,0.00,0.0,WeatherDisplay:10.37,2013-06-26 06:00:00,
2013-06-26 01:05:00,64.3,63.1,29.70,South,183,3.5,3.5,96,0.00,CLR,,0.00,0.0,WeatherDisplay:10.37,2013-06-26 06:05:00,
2013-06-26 01:10:00,64.3,63.1,29.70,South,183,3.5,3.5,96,0.00,CLR,,0.00,0.0,WeatherDisplay:10.37,2013-06-26 06:10:00,
2013-06-26 01:16:00,64.3,63.1,29.70,South,183,3.5,3.5,96,0.00,CLR,,0.00,0.0,WeatherDisplay:10.37,2013-06-26 06:16:00,
2013-06-26 01:21:00,64.3,63.1,29.70,South,183,3.5,3.5,96,0.00,CLR,,0.00,0.0,WeatherDisplay:10.37,2013-06-26 06:21:00,
2013-06-26 01:26:00,64.3,63.1,29.70,South,183,5.8,5.8,96,0.00,CLR,,0.00,0.0,WeatherDisplay:10.37,2013-06-26 06:26:00,
2013-06-26 01:31:00,64.3,63.1,29.70,South,183,5.8,5.8,96,0.00,CLR,,0.00,0.0,WeatherDisplay:10.37,2013-06-26 06:31:00,
2013-06-26 01:36:00,64.3,63.1,29.70,South,183,6.0,6.0,96,0.00,CLR,,0.00,0.0,WeatherDisplay:10.37,2013-06-26 06:36:00,
2013-06-26 01:41:00,64.2,63.0,29.69,South,183,5.8,5.8,96,0.00,CLR,,0.00,0.0,WeatherDisplay:10.37,2013-06-26 06:41:00,
2013-06-26 01:46:00,64.2,63.0,29.69,South,183,5.0,5.0,96,0.00,CLR,,0.00,0.0,WeatherDisplay:10.37,2013-06-26 06:46:00,
2013-06-26 01:51:00,64.2,63.0,29.69,South,183,6.0,6.0,96,0.00,CLR,,0.00,0.0,WeatherDisplay:10.37,2013-06-26 06:51:00,
2013-06-26 01:57:00,64.2,63.0,29.69,South,183,4.0,4.0,96,0.00,CLR,,0.00,0.0,WeatherDisplay:10.37,2013-06-26 06:57:00,
2013-06-26 02:02:00,64.2,63.0,29.69,South,183,5.0,5.0,96,0.00,CLR,,0.00,0.0,WeatherDisplay:10.37,2013-06-26 07:02:00,
2013-06-26 02:07:00,64.2,63.0,29.69,South,183,3.5,3.5,96,0.00,CLR,,0.00,0.0,WeatherDisplay:10.37,2013-06-26 07:07:00,
2013-06-26 02:12:00,64.2,63.0,29.69,South,183,3.5,3.5,96,0.00,CLR,,0.00,0.0,WeatherDisplay:10.37,2013-06-26 07:12:00,
2013-06-26 02:17:00,64.3,63.1,29.68,South,183,3.5,3.5,96,0.00,CLR,,0.00,0.0,WeatherDisplay:10.37,2013-06-26 07:17:00,
2013-06-26 02:22:00,64.3,63.1,29.68,South,183,2.3,2.3,96,0.00,CLR,,0.00,0.0,WeatherDisplay:10.37,2013-06-26 07:22:00,
2013-06-26 02:27:00,64.3,63.1,29.68,South,183,3.5,3.5,96,0.00,CLR,,0.00,0.0,WeatherDisplay:10.37,2013-06-26 07:27:00,
2013-06-26 02:33:00,64.3,63.1,29.68,South,183,4.6,4.6,96,0.00,CLR,,0.00,0.0,WeatherDisplay:10.37,2013-06-26 07:33:00,
2013-06-26 02:38:00,64.2,63.0,29.68,South,183,4.6,4.6,96,0.00,CLR,,0.00,0.0,WeatherDisplay:10.37,2013-06-26 07:38:00,
2013-06-26 02:43:00,64.2,63.0,29.68,South,183,4.0,4.0,96,0.00,CLR,,0.00,0.0,WeatherDisplay:10.37,2013-06-26 07:43:00,
2013-06-26 02:48:00,64.2,63.0,29.68,South,183,4.0,4.0,96,0.00,CLR,,0.00,0.0,WeatherDisplay:10.37,2013-06-26 07:48:00,
2013-06-26 02:53:00,64.2,63.0,29.68,South,183,4.6,4.6,96,0.00,CLR,,0.00,0.0,WeatherDisplay:10.37,2013-06-26 07:53:00,
2013-06-26 02:58:00,64.2,63.0,29.68,South,183,5.8,5.8,96,0.00,CLR,,0.00,0.0,WeatherDisplay:10.37,2013-06-26 07:58:00,
2013-06-26 03:03:00,64.2,63.0,29.67,South,183,3.5,3.5,96,0.00,CLR,,0.00,0.0,WeatherDisplay:10.37,2013-06-26 08:03:00,
2013-06-26 03:08:00,64.2,63.0,29.67,South,183,4.6,4.6,96,0.00,CLR,,0.00,0.0,WeatherDisplay:10.37,2013-06-26 08:08:00,
2013-06-26 03:14:00,64.0,62.8,29.67,South,183,4.6,4.6,96,0.00,CLR,,0.00,0.0,WeatherDisplay:10.37,2013-06-26 08:14:00,
2013-06-26 03:19:00,64.0,62.8,29.68,South,183,4.6,4.6,96,0.00,CLR,,0.00,0.0,WeatherDisplay:10.37,2013-06-26 08:19:00,
2013-06-26 03:24:00,64.0,62.8,29.68,South,183,2.0,2.0,96,0.00,CLR,,0.00,0.0,WeatherDisplay:10.37,2013-06-26 08:24:00,
2013-06-26 03:29:00,64.0,62.8,29.68,South,183,3.5,3.5,96,0.00,CLR,,0.00,0.0,WeatherDisplay:10.37,2013-06-26 08:29:00,
2013-06-26 03:34:00,64.2,63.0,29.67,South,183,3.5,3.5,96,0.00,CLR,,0.00,0.0,WeatherDisplay:10.37,2013-06-26 08:34:00,
2013-06-26 03:39:00,64.0,62.8,29.67,South,183,4.0,4.0,96,0.00,CLR,,0.00,0.0,WeatherDisplay:10.37,2013-06-26 08:39:00,
2013-06-26 03:44:00,64.0,62.8,29.67,South,183,5.0,7.0,96,0.00,CLR,CLR,0.00,0.0,WeatherDisplay:10.37,2013-06-26 08:44:00,
2013-06-26 03:49:00,64.0,62.8,29.67,South,183,5.0,6.0,96,0.00,CLR,CLR,0.00,0.0,WeatherDisplay:10.37,2013-06-26 08:49:00,
2013-06-26 03:54:00,64.0,62.8,29.67,South,183,4.0,4.0,96,0.00,CLR,,0.00,0.0,WeatherDisplay:10.37,2013-06-26 08:54:00,
2013-06-26 04:00:00,64.0,62.8,29.67,South,183,5.8,5.8,96,0.00,CLR,,0.00,0.0,WeatherDisplay:10.37,2013-06-26 09:00:00,
2013-06-26 04:05:00,64.0,62.8,29.67,South,183,5.0,5.0,96,0.00,CLR,,0.00,0.0,WeatherDisplay:10.37,2013-06-26 09:05:00,
2013-06-26 04:10:00,64.0,62.8,29.67,South,183,3.5,3.5,96,0.00,CLR,,0.00,0.0,WeatherDisplay:10.37,2013-06-26 09:10:00,
2013-06-26 04:15:00,64.0,62.8,29.67,South,183,4.0,4.0,96,0.00,CLR,,0.00,0.0,WeatherDisplay:10.37,2013-06-26 09:15:00,
2013-06-26 04:20:00,64.0,62.8,29.68,South,183,4.6,4.6,96,0.00,CLR,,0.00,0.0,WeatherDisplay:10.37,2013-06-26 09:20:00,
2013-06-26 04:25:00,64.0,63.1,29.68,South,183,3.5,3.5,97,0.00,CLR,,0.00,0.0,WeatherDisplay:10.37,2013-06-26 09:25:00,
2013-06-26 04:30:00,64.2,63.3,29.68,South,183,4.0,4.0,97,0.00,CLR,,0.00,0.0,WeatherDisplay:10.37,2013-06-26 09:30:00,
2013-06-26 04:36:00,64.3,63.4,29.68,South,183,3.5,3.5,97,0.00,CLR,,0.00,0.0,WeatherDisplay:10.37,2013-06-26 09:36:00,
2013-06-26 04:41:00,64.3,63.4,29.69,South,183,3.5,3.5,97,0.00,CLR,,0.00,0.0,WeatherDisplay:10.37,2013-06-26 09:41:00,
2013-06-26 04:46:00,64.5,63.9,29.69,South,183,4.6,4.6,98,0.00,CLR,,0.00,0.0,WeatherDisplay:10.37,2013-06-26 09:46:00,
2013-06-26 04:51:00,64.7,64.1,29.69,South,183,3.5,3.5,98,0.00,CLR,,0.00,0.0,WeatherDisplay:10.37,2013-06-26 09:51:00,
2013-06-26 04:56:00,65.0,64.4,29.69,South,183,3.5,3.5,98,0.00,CLR,,0.00,0.0,WeatherDisplay:10.37,2013-06-26 09:56:00,
2013-06-26 05:01:00,65.2,64.9,29.69,South,183,4.0,4.0,99,0.00,CLR,,0.00,0.0,WeatherDisplay:10.37,2013-06-26 10:01:00,
2013-06-26 05:06:00,65.3,65.0,29.69,South,183,3.5,3.5,99,0.00,CLR,,0.00,0.0,WeatherDisplay:10.37,2013-06-26 10:06:00,
2013-06-26 05:11:00,65.3,64.7,29.68,South,183,3.5,3.5,98,0.00,CLR,,0.00,0.0,WeatherDisplay:10.37,2013-06-26 10:11:00,
2013-06-26 05:17:00,65.5,65.2,29.68,South,183,3.5,3.5,99,0.00,CLR,,0.00,0.0,WeatherDisplay:10.37,2013-06-26 10:17:00,
2013-06-26 05:22:00,65.5,65.2,29.68,South,183,4.0,4.0,99,0.00,CLR,,0.00,0.0,WeatherDisplay:10.37,2013-06-26 10:22:00,
2013-06-26 05:27:00,65.5,65.2,29.68,South,183,3.5,3.5,99,0.00,CLR,,0.00,0.0,WeatherDisplay:10.37,2013-06-26 10:27:00,
2013-06-26 05:32:00,65.6,65.3,29.68,South,183,3.5,3.5,99,0.00,CLR,,0.00,0.0,WeatherDisplay:10.37,2013-06-26 10:32:00,
2013-06-26 05:37:00,65.6,65.3,29.68,South,183,3.5,3.5,99,0.00,CLR,,0.00,0.0,WeatherDisplay:10.37,2013-06-26 10:37:00,
2013-06-26 05:42:00,65.8,65.5,29.67,South,183,3.5,3.5,99,0.00,CLR,,0.00,0.0,WeatherDisplay:10.37,2013-06-26 10:42:00,
2013-06-26 05:47:00,65.8,65.5,29.67,South,183,4.6,4.6,99,0.00,CLR,,0.00,0.0,WeatherDisplay:10.37,2013-06-26 10:47:00,
2013-06-26 05:53:00,66.0,65.7,29.67,South,183,5.0,5.0,99,0.00,CLR,,0.00,0.0,WeatherDisplay:10.37,2013-06-26 10:53:00,
2013-06-26 05:58:00,66.0,65.7,29.67,South,183,5.0,5.0,99,0.00,CLR,,0.00,0.0,WeatherDisplay:10.37,2013-06-26 10:58:00,
2013-06-26 06:03:00,66.1,65.8,29.66,South,183,3.5,3.5,99,0.00,CLR,,0.00,0.0,WeatherDisplay:10.37,2013-06-26 11:03:00,
2013-06-26 06:08:00,66.3,66.0,29.66,South,183,5.0,5.0,99,0.00,CLR,,0.00,0.0,WeatherDisplay:10.37,2013-06-26 11:08:00,
2013-06-26 06:13:00,66.6,66.3,29.66,South,183,5.0,5.0,99,0.00,CLR,,0.00,0.0,WeatherDisplay:10.37,2013-06-26 11:13:00,
2013-06-26 06:18:00,66.8,66.8,29.66,South,183,6.0,6.0,100,0.00,CLR,,0.00,0.0,WeatherDisplay:10.37,2013-06-26 11:18:00,
2013-06-26 06:23:00,66.9,66.9,29.66,South,183,4.6,4.6,100,0.00,CLR,,0.00,0.0,WeatherDisplay:10.37,2013-06-26 11:23:00,
2013-06-26 06:28:00,67.1,67.1,29.65,South,183,4.6,4.6,100,0.00,CLR,,0.00,0.0,WeatherDisplay:10.37,2013-06-26 11:28:00,
2013-06-26 06:34:00,67.3,67.3,29.65,South,183,4.0,4.0,100,0.00,CLR,,0.00,0.0,WeatherDisplay:10.37,2013-06-26 11:34:00,
2013-06-26 06:39:00,67.6,67.6,29.65,South,183,5.8,5.8,100,0.00,CLR,,0.00,0.0,WeatherDisplay:10.37,2013-06-26 11:39:00,
2013-06-26 06:44:00,67.8,67.8,29.65,South,183,4.0,4.0,100,0.00,CLR,,0.00,0.0,WeatherDisplay:10.37,2013-06-26 11:44:00,
2013-06-26 06:49:00,67.8,67.8,29.65,South,183,3.5,3.5,100,0.00,CLR,,0.00,0.0,WeatherDisplay:10.37,2013-06-26 11:49:00,
2013-06-26 06:54:00,67.9,67.9,29.65,South,183,5.0,5.0,100,0.00,CLR,,0.00,0.0,WeatherDisplay:10.37,2013-06-26 11:54:00,
2013-06-26 06:59:00,68.1,68.1,29.65,South,183,5.8,5.8,100,0.00,CLR,,0.00,0.0,WeatherDisplay:10.37,2013-06-26 11:59:00,
2013-06-26 07:04:00,68.3,68.3,29.65,South,183,5.0,8.0,100,0.00,OVC,OVC,0.00,0.0,WeatherDisplay:10.37,2013-06-26 12:04:00,
2013-06-26 07:09:00,68.4,68.4,29.65,South,183,3.0,7.0,100,0.00,OVC,OVC,0.00,0.0,WeatherDisplay:10.37,2013-06-26 12:09:00,
2013-06-26 07:14:00,68.6,68.6,29.65,South,183,8.1,8.1,100,0.00,OVC,,0.00,0.0,WeatherDisplay:10.37,2013-06-26 12:14:00,
2013-06-26 07:19:00,68.6,68.6,29.66,South,183,5.0,7.0,100,0.00,OVC,OVC,0.00,0.0,WeatherDisplay:10.37,2013-06-26 12:19:00,
2013-06-26 07:24:00,68.8,68.8,29.66,South,183,6.0,6.0,100,0.00,OVC,,0.00,0.0,WeatherDisplay:10.37,2013-06-26 12:24:00,
2013-06-26 07:29:00,68.8,68.8,29.67,South,183,2.0,7.0,100,0.00,OVC,OVC,0.00,0.0,WeatherDisplay:10.37,2013-06-26 12:29:00,
2013-06-26 07:34:00,68.9,68.9,29.66,South,183,8.1,8.1,100,0.00,OVC,,0.00,0.0,WeatherDisplay:10.37,2013-06-26 12:34:00,
2013-06-26 07:40:00,68.9,68.9,29.66,South,183,6.0,6.0,100,0.00,OVC,,0.00,0.0,WeatherDisplay:10.37,2013-06-26 12:40:00,
2013-06-26 07:45:00,69.1,69.1,29.66,South,183,5.0,5.0,100,0.00,OVC,,0.00,0.0,WeatherDisplay:10.37,2013-06-26 12:45:00,
2013-06-26 07:50:00,69.1,69.1,29.66,South,183,6.0,6.0,100,0.00,OVC,,0.00,0.0,WeatherDisplay:10.37,2013-06-26 12:50:00,
2013-06-26 07:55:00,69.3,69.3,29.66,South,183,6.0,6.0,100,0.00,OVC,,0.00,0.0,WeatherDisplay:10.37,2013-06-26 12:55:00,
2013-06-26 08:00:00,69.3,69.3,29.66,South,183,5.8,5.8,100,0.00,OVC,,0.00,0.0,WeatherDisplay:10.37,2013-06-26 13:00:00,
2013-06-26 08:05:00,69.4,69.4,29.66,South,183,6.9,6.9,100,0.00,OVC,,0.00,0.0,WeatherDisplay:10.37,2013-06-26 13:05:00,
2013-06-26 08:10:00,69.4,69.4,29.65,South,183,5.8,5.8,100,0.00,OVC,,0.00,0.0,WeatherDisplay:10.37,2013-06-26 13:10:00,
2013-06-26 08:16:00,69.6,69.6,29.65,South,183,5.8,5.8,100,0.00,OVC,,0.00,0.0,WeatherDisplay:10.37,2013-06-26 13:16:00,
2013-06-26 08:21:00,69.9,69.9,29.66,South,183,6.9,6.9,100,0.00,OVC,,0.00,0.0,WeatherDisplay:10.37,2013-06-26 13:21:00,
2013-06-26 08:26:00,70.3,70.3,29.66,South,183,6.9,6.9,100,0.00,OVC,,0.00,0.0,WeatherDisplay:10.37,2013-06-26 13:26:00,
2013-06-26 08:31:00,70.4,70.4,29.65,South,183,3.5,3.5,100,0.00,OVC,,0.00,0.0,WeatherDisplay:10.37,2013-06-26 13:31:00,
2013-06-26 08:36:00,70.6,70.6,29.65,South,183,4.6,4.6,100,0.00,OVC,,0.00,0.0,WeatherDisplay:10.37,2013-06-26 13:36:00,
2013-06-26 08:41:00,70.8,70.8,29.65,South,177,8.1,8.1,100,0.00,OVC,,0.00,0.0,WeatherDisplay:10.37,2013-06-26 13:41:00,
2013-06-26 08:47:00,70.9,70.9,29.65,South,175,9.2,9.2,100,0.00,OVC,,0.00,0.0,WeatherDisplay:10.37,2013-06-26 13:47:00,
2013-06-26 08:54:00,71.3,71.3,29.65,South,178,9.2,9.2,100,0.00,OVC,,0.00,0.0,WeatherDisplay:10.37,2013-06-26 13:54:00,
2013-06-26 08:59:00,71.3,71.0,29.65,SSE,157,12.0,12.0,99,0.00,OVC,,0.00,0.0,WeatherDisplay:10.37,2013-06-26 13:59:00,
2013-06-26 09:04:00,71.5,71.2,29.65,SSE,158,9.2,9.2,99,0.00,OVC,,0.00,0.0,WeatherDisplay:10.37,2013-06-26 14:04:00,
2013-06-26 09:09:00,72.0,71.4,29.64,SSE,152,11.5,11.5,98,0.00,OVC,,0.00,0.0,WeatherDisplay:10.37,2013-06-26 14:09:00,
2013-06-26 09:14:00,72.3,70.8,29.64,SSE,150,10.4,10.4,95,0.00,OVC,,0.00,0.0,WeatherDisplay:10.37,2013-06-26 14:14:00,
2013-06-26 09:19:00,72.6,70.8,29.64,SSE,157,3.0,10.0,94,0.00,OVC,OVC,0.00,0.0,WeatherDisplay:10.37,2013-06-26 14:19:00,
2013-06-26 09:25:00,73.2,70.7,29.64,SSE,165,9.2,9.2,92,0.00,OVC,,0.00,0.0,WeatherDisplay:10.37,2013-06-26 14:25:00,
2013-06-26 09:30:00,73.3,70.2,29.64,SSE,158,11.5,11.5,90,0.00,OVC,,0.00,0.0,WeatherDisplay:10.37,2013-06-26 14:30:00,
2013-06-26 09:35:00,73.5,70.4,29.64,SSE,167,10.4,10.4,90,0.00,OVC,,0.00,0.0,WeatherDisplay:10.37,2013-06-26 14:35:00,
2013-06-26 09:40:00,73.9,70.1,29.64,SSE,150,9.2,9.2,88,0.00,OVC,,0.00,0.0,WeatherDisplay:10.37,2013-06-26 14:40:00,
2013-06-26 09:45:00,74.6,70.5,29.64,SE,144,8.0,8.0,87,0.00,OVC,,0.00,0.0,WeatherDisplay:10.37,2013-06-26 14:45:00,
2013-06-26 09:50:00,75.6,71.1,29.64,SSE,151,11.5,11.5,86,0.00,OVC,,0.00,0.0,WeatherDisplay:10.37,2013-06-26 14:50:00,
2013-06-26 09:55:00,76.5,70.2,29.64,SSE,151,11.5,11.5,81,0.00,OVC,,0.00,0.0,WeatherDisplay:10.37,2013-06-26 14:55:00,
2013-06-26 10:01:00,76.7,71.1,29.64,SSE,163,10.0,10.0,83,0.00,OVC,,0.00,0.0,WeatherDisplay:10.37,2013-06-26 15:01:00,
2013-06-26 10:06:00,76.8,70.5,29.65,South,178,11.5,11.5,81,0.00,OVC,,0.00,0.0,WeatherDisplay:10.37,2013-06-26 15:06:00,
2013-06-26 10:11:00,76.8,70.5,29.65,South,179,10.4,10.4,81,0.00,OVC,,0.00,0.0,WeatherDisplay:10.37,2013-06-26 15:11:00,
2013-06-26 10:16:00,76.7,70.8,29.65,South,169,15.0,15.0,82,0.00,OVC,,0.00,0.0,WeatherDisplay:10.37,2013-06-26 15:16:00,
2013-06-26 10:21:00,76.7,70.8,29.65,South,175,12.0,12.0,82,0.00,OVC,,0.00,0.0,WeatherDisplay:10.37,2013-06-26 15:21:00,
2013-06-26 10:26:00,76.5,70.6,29.66,South,179,13.8,13.8,82,0.00,OVC,,0.00,0.0,WeatherDisplay:10.37,2013-06-26 15:26:00,
2013-06-26 10:31:00,76.3,70.4,29.66,South,182,13.8,13.8,82,0.00,OVC,,0.00,0.0,WeatherDisplay:10.37,2013-06-26 15:31:00,
2013-06-26 10:36:00,76.5,70.9,29.66,SW,233,11.5,11.5,83,0.00,OVC,,0.00,0.0,WeatherDisplay:10.37,2013-06-26 15:36:00,
2013-06-26 10:42:00,76.8,70.9,29.65,SSW,194,10.4,10.4,82,0.00,OVC,,0.00,0.0,WeatherDisplay:10.37,2013-06-26 15:42:00,
2013-06-26 10:47:00,77.6,71.7,29.65,South,171,11.5,11.5,82,0.00,OVC,,0.00,0.0,WeatherDisplay:10.37,2013-06-26 15:47:00,
2013-06-26 10:52:00,78.6,71.2,29.65,South,173,11.5,11.5,78,0.00,OVC,,0.00,0.0,WeatherDisplay:10.37,2013-06-26 15:52:00,
2013-06-26 10:57:00,78.8,72.1,29.65,South,176,3.5,3.5,80,0.00,OVC,,0.00,0.0,WeatherDisplay:10.37,2013-06-26 15:57:00,
2013-06-26 11:02:00,78.3,71.2,29.66,SSW,202,4.6,4.6,79,0.00,OVC,,0.00,0.0,WeatherDisplay:10.37,2013-06-26 16:02:00,
2013-06-26 11:07:00,77.7,71.4,29.65,SW,216,11.5,11.5,81,0.00,OVC,,0.00,0.0,WeatherDisplay:10.37,2013-06-26 16:07:00,
2013-06-26 11:12:00,78.1,71.4,29.66,SW,223,11.5,11.5,80,0.00,OVC,,0.00,0.0,WeatherDisplay:10.37,2013-06-26 16:12:00,
2013-06-26 11:14:00,78.1,71.4,29.65,SSW,194,9.2,9.2,80,0.00,OVC,,0.00,0.0,WeatherDisplay:10.37,2013-06-26 16:14:00,
2013-06-26 11:19:00,78.1,70.3,29.65,South,187,11.5,11.5,77,0.00,OVC,,0.00,0.0,WeatherDisplay:10.37,2013-06-26 16:19:00,
2013-06-26 11:24:00,79.2,71.7,29.65,SSE,168,9.0,9.0,78,0.00,OVC,,0.00,0.0,WeatherDisplay:10.37,2013-06-26 16:24:00,
2013-06-26 11:29:00,80.1,70.7,29.65,South,181,13.8,13.8,73,0.00,OVC,,0.00,0.0,WeatherDisplay:10.37,2013-06-26 16:29:00,
2013-06-26 11:34:00,79.9,71.7,29.65,SSW,194,13.8,13.8,76,0.00,OVC,,0.00,0.0,WeatherDisplay:10.37,2013-06-26 16:34:00,
2013-06-26 11:39:00,79.9,70.9,29.65,South,191,9.0,15.0,74,0.00,OVC,OVC,0.00,0.0,WeatherDisplay:10.37,2013-06-26 16:39:00,
2013-06-26 11:45:00,80.5,71.0,29.65,South,183,12.7,12.7,73,0.00,OVC,,0.00,0.0,WeatherDisplay:10.37,2013-06-26 16:45:00,
2013-06-26 11:50:00,80.9,71.4,29.65,South,175,15.0,15.0,73,0.00,OVC,,0.00,0.0,WeatherDisplay:10.37,2013-06-26 16:50:00,
2013-06-26 11:55:00,81.2,72.1,29.64,SSE,168,9.2,9.2,74,0.00,OVC,,0.00,0.0,WeatherDisplay:10.37,2013-06-26 16:55:00,
2013-06-26 12:00:00,81.4,72.7,29.64,SE,144,9.2,9.2,75,0.00,OVC,,0.00,0.0,WeatherDisplay:10.37,2013-06-26 17:00:00,
2013-06-26 12:05:00,80.7,71.2,29.64,SW,217,9.2,9.2,73,0.00,OVC,,0.00,0.0,WeatherDisplay:10.37,2013-06-26 17:05:00,
2013-06-26 12:10:00,80.5,71.8,29.64,WSW,242,9.0,9.0,75,0.00,OVC,,0.00,0.0,WeatherDisplay:10.37,2013-06-26 17:10:00,
2013-06-26 12:15:00,81.2,70.9,29.64,South,175,16.1,16.1,71,0.00,OVC,,0.00,0.0,WeatherDisplay:10.37,2013-06-26 17:15:00,
2013-06-26 12:21:00,80.9,71.0,29.63,South,171,11.5,11.5,72,0.00,OVC,,0.00,0.0,WeatherDisplay:10.37,2013-06-26 17:21:00,
2013-06-26 12:26:00,80.9,71.4,29.63,South,185,11.5,11.5,73,0.00,OVC,,0.00,0.0,WeatherDisplay:10.37,2013-06-26 17:26:00,
2013-06-26 12:31:00,81.4,71.1,29.63,South,173,15.0,15.0,71,0.00,OVC,,0.00,0.0,WeatherDisplay:10.37,2013-06-26 17:31:00,
2013-06-26 12:36:00,81.2,71.3,29.63,SSW,192,15.0,15.0,72,0.00,OVC,,0.00,0.0,WeatherDisplay:10.37,2013-06-26 17:36:00,
2013-06-26 12:41:00,80.9,71.0,29.63,SW,228,12.7,12.7,72,0.00,OVC,,0.00,0.0,WeatherDisplay:10.37,2013-06-26 17:41:00,
2013-06-26 12:46:00,80.9,71.0,29.63,SW,227,12.0,12.0,72,0.00,OVC,,0.00,0.0,WeatherDisplay:10.37,2013-06-26 17:46:00,
2013-06-26 12:51:00,81.2,71.3,29.64,WSW,244,11.5,11.5,72,0.00,OVC,,0.00,0.0,WeatherDisplay:10.37,2013-06-26 17:51:00,
2013-06-26 12:56:00,80.5,71.4,29.64,SSW,199,18.4,18.4,74,0.00,OVC,,0.00,0.0,WeatherDisplay:10.37,2013-06-26 17:56:00,
2013-06-26 13:02:00,81.1,70.8,29.64,SSE,168,13.8,13.8,71,0.00,OVC,,0.00,0.0,WeatherDisplay:10.37,2013-06-26 18:02:00,
2013-06-26 13:07:00,81.6,71.7,29.64,SSW,202,15.0,15.0,72,0.00,OVC,,0.00,0.0,WeatherDisplay:10.37,2013-06-26 18:07:00,
2013-06-26 13:12:00,81.6,70.0,29.64,WSW,249,23.0,23.0,68,0.00,OVC,,0.00,0.0,WeatherDisplay:10.37,2013-06-26 18:12:00,
2013-06-26 13:17:00,81.4,71.1,29.64,SSW,192,13.8,13.8,71,0.00,OVC,,0.00,0.0,WeatherDisplay:10.37,2013-06-26 18:17:00,
2013-06-26 13:22:00,80.7,71.2,29.64,SSW,192,19.6,19.6,73,0.00,OVC,,0.00,0.0,WeatherDisplay:10.37,2013-06-26 18:22:00,
2013-06-26 13:27:00,79.8,70.4,29.63,South,182,15.0,15.0,73,0.00,OVC,,0.00,0.0,WeatherDisplay:10.37,2013-06-26 18:27:00,
2013-06-26 13:32:00,79.0,69.6,29.62,SSE,166,16.1,16.1,73,0.00,OVC,,0.00,0.0,WeatherDisplay:10.37,2013-06-26 18:32:00,
2013-06-26 13:38:00,78.6,70.4,29.62,SSE,164,11.5,11.5,76,0.00,OVC,,0.00,0.0,WeatherDisplay:10.37,2013-06-26 18:38:00,
2013-06-26 13:43:00,78.3,70.9,29.63,SSW,206,12.0,12.0,78,0.00,OVC,,0.00,0.0,WeatherDisplay:10.37,2013-06-26 18:43:00,
2013-06-26 13:48:00,78.1,69.9,29.63,South,190,15.0,15.0,76,0.00,OVC,,0.00,0.0,WeatherDisplay:10.37,2013-06-26 18:48:00,
2013-06-26 13:53:00,78.1,69.9,29.63,South,174,10.4,10.4,76,0.00,OVC,,0.00,0.0,WeatherDisplay:10.37,2013-06-26 18:53:00,
2013-06-26 13:58:00,77.7,70.3,29.63,SSW,198,11.5,11.5,78,0.00,OVC,,0.00,0.0,WeatherDisplay:10.37,2013-06-26 18:58:00,
2013-06-26 14:03:00,77.4,70.7,29.64,WSW,256,6.9,6.9,80,0.00,OVC,,0.00,0.0,WeatherDisplay:10.37,2013-06-26 19:03:00,
2013-06-26 14:08:00,77.0,70.7,29.64,SW,235,7.0,7.0,81,0.00,OVC,,0.00,0.0,WeatherDisplay:10.37,2013-06-26 19:08:00,
2013-06-26 14:13:00,76.8,71.2,29.63,SSW,211,6.9,6.9,83,0.00,OVC,,0.00,0.0,WeatherDisplay:10.37,2013-06-26 19:13:00,
2013-06-26 14:19:00,76.7,71.1,29.64,SW,224,8.1,8.1,83,0.00,OVC,,0.00,0.0,WeatherDisplay:10.37,2013-06-26 19:19:00,
2013-06-26 14:24:00,76.3,71.5,29.65,West,266,3.5,3.5,85,0.00,OVC,,0.00,0.0,WeatherDisplay:10.37,2013-06-26 19:24:00,
2013-06-26 14:29:00,76.1,72.3,29.65,WNW,290,4.6,4.6,88,0.00,OVC,,0.00,0.0,WeatherDisplay:10.37,2013-06-26 19:29:00,
2013-06-26 14:34:00,75.6,71.8,29.65,NW,323,5.8,5.8,88,0.01,RA,,0.01,0.0,WeatherDisplay:10.37,2013-06-26 19:34:00,
2013-06-26 14:39:00,75.4,71.6,29.65,NNW,335,4.6,4.6,88,0.01,RA,,0.01,0.0,WeatherDisplay:10.37,2013-06-26 19:39:00,
2013-06-26 14:44:00,75.3,71.8,29.65,North,2,7.0,7.0,89,0.02,RA,,0.02,0.0,WeatherDisplay:10.37,2013-06-26 19:44:00,
2013-06-26 14:49:00,75.1,71.6,29.66,West,266,13.0,13.0,89,0.02,RA,,0.02,0.0,WeatherDisplay:10.37,2013-06-26 19:49:00,
2013-06-26 14:55:00,74.6,69.8,29.67,West,266,30.0,30.0,85,0.05,RA,,0.05,0.0,WeatherDisplay:10.37,2013-06-26 19:55:00,
2013-06-26 15:00:00,73.5,68.0,29.68,West,275,31.1,31.1,83,0.15,RA,,0.16,0.0,WeatherDisplay:10.37,2013-06-26 20:00:00,
2013-06-26 15:05:00,72.7,67.9,29.67,West,266,6.9,6.9,85,0.24,RA,,0.24,0.0,WeatherDisplay:10.37,2013-06-26 20:05:00,
2013-06-26 15:10:00,72.1,67.7,29.67,West,277,4.6,4.6,86,0.32,RA,,0.32,0.0,WeatherDisplay:10.37,2013-06-26 20:10:00,
2013-06-26 15:15:00,71.5,67.4,29.67,SE,131,11.5,11.5,87,0.33,RA,,0.33,0.0,WeatherDisplay:10.37,2013-06-26 20:15:00,
2013-06-26 15:20:00,70.6,66.9,29.67,SE,128,11.5,11.5,88,0.33,RA,,0.33,0.0,WeatherDisplay:10.37,2013-06-26 20:20:00,
2013-06-26 15:25:00,69.9,66.5,29.67,ESE,123,5.8,5.8,89,0.33,OVC,,0.33,0.0,WeatherDisplay:10.37,2013-06-26 20:25:00,
2013-06-26 15:30:00,69.8,66.7,29.66,ESE,123,4.6,4.6,90,0.33,OVC,,0.33,0.0,WeatherDisplay:10.37,2013-06-26 20:30:00,
2013-06-26 15:36:00,69.4,66.7,29.67,ESE,105,3.5,3.5,91,0.32,OVC,,0.33,0.0,WeatherDisplay:10.37,2013-06-26 20:36:00,
2013-06-26 15:41:00,69.3,66.9,29.67,ESE,105,4.0,4.0,92,0.32,OVC,,0.33,0.0,WeatherDisplay:10.37,2013-06-26 20:41:00,
2013-06-26 15:46:00,69.1,66.7,29.67,SSE,149,6.9,6.9,92,0.31,OVC,,0.33,0.0,WeatherDisplay:10.37,2013-06-26 20:46:00,
2013-06-26 15:51:00,68.9,66.8,29.67,SSE,148,4.6,4.6,93,0.31,OVC,,0.33,0.0,WeatherDisplay:10.37,2013-06-26 20:51:00,
2013-06-26 15:56:00,68.9,66.8,29.67,SSE,148,3.0,3.0,93,0.27,OVC,,0.33,0.0,WeatherDisplay:10.37,2013-06-26 20:56:00,
2013-06-26 16:01:00,68.9,66.8,29.67,SSE,148,3.5,3.5,93,0.15,OVC,,0.33,0.0,WeatherDisplay:10.37,2013-06-26 21:01:00,
2013-06-26 16:06:00,68.8,66.7,29.67,SSE,158,4.6,4.6,93,0.08,OVC,,0.33,0.0,WeatherDisplay:10.37,2013-06-26 21:06:00,
2013-06-26 16:12:00,68.9,67.1,29.67,SSE,160,3.5,3.5,94,0.00,OVC,,0.33,0.0,WeatherDisplay:10.37,2013-06-26 21:12:00,
2013-06-26 16:17:00,68.9,67.1,29.67,SSE,160,1.2,1.2,94,0.00,OVC,,0.33,0.0,WeatherDisplay:10.37,2013-06-26 21:17:00,
2013-06-26 16:22:00,69.1,67.6,29.66,SSE,160,2.3,2.3,95,0.00,OVC,,0.33,0.0,WeatherDisplay:10.37,2013-06-26 21:22:00,
2013-06-26 16:27:00,69.1,67.6,29.65,SSE,160,0.0,0.0,95,0.00,OVC,,0.33,0.0,WeatherDisplay:10.37,2013-06-26 21:27:00,
2013-06-26 16:32:00,69.3,68.1,29.65,SSE,160,0.0,0.0,96,0.00,OVC,,0.33,0.0,WeatherDisplay:10.37,2013-06-26 21:32:00,
2013-06-26 16:37:00,69.4,68.2,29.66,SSE,160,0.0,0.0,96,0.00,OVC,,0.33,0.0,WeatherDisplay:10.37,2013-06-26 21:37:00,
2013-06-26 16:42:00,69.6,68.4,29.66,SSE,160,1.2,1.2,96,0.00,OVC,,0.33,0.0,WeatherDisplay:10.37,2013-06-26 21:42:00,
2013-06-26 16:47:00,70.3,69.4,29.66,SSE,160,0.0,0.0,97,0.00,OVC,,0.33,0.0,WeatherDisplay:10.37,2013-06-26 21:47:00,
2013-06-26 16:53:00,70.9,69.7,29.66,SSE,160,1.2,1.2,96,0.00,OVC,,0.33,0.0,WeatherDisplay:10.37,2013-06-26 21:53:00,
2013-06-26 16:58:00,71.3,70.1,29.65,SSE,160,1.2,1.2,96,0.00,OVC,,0.33,0.0,WeatherDisplay:10.37,2013-06-26 21:58:00,
2013-06-26 17:03:00,71.8,70.9,29.66,SSE,160,3.5,3.5,97,0.00,OVC,,0.33,0.0,WeatherDisplay:10.37,2013-06-26 22:03:00,
2013-06-26 17:08:00,72.3,71.1,29.65,SSE,160,3.5,3.5,96,0.00,OVC,,0.33,0.0,WeatherDisplay:10.37,2013-06-26 22:08:00,
2013-06-26 17:13:00,72.8,71.3,29.66,SSE,160,3.5,3.5,95,0.00,OVC,,0.33,0.0,WeatherDisplay:10.37,2013-06-26 22:13:00,
2013-06-26 17:19:00,73.3,71.5,29.66,SSE,160,3.5,3.5,94,0.00,OVC,,0.33,0.0,WeatherDisplay:10.37,2013-06-26 22:19:00,
2013-06-26 17:24:00,73.7,70.6,29.66,SSE,160,3.5,3.5,90,0.00,OVC,,0.33,0.0,WeatherDisplay:10.37,2013-06-26 22:24:00,
2013-06-26 17:29:00,74.0,71.5,29.66,SSE,160,2.3,2.3,92,0.00,OVC,,0.33,0.0,WeatherDisplay:10.37,2013-06-26 22:29:00,
2013-06-26 17:34:00,74.4,71.6,29.65,SSE,160,0.0,0.0,91,0.00,OVC,,0.33,0.0,WeatherDisplay:10.37,2013-06-26 22:34:00,
2013-06-26 17:39:00,74.0,70.9,29.66,SSE,160,3.5,3.5,90,0.00,OVC,,0.33,0.0,WeatherDisplay:10.37,2013-06-26 22:39:00,
2013-06-26 17:44:00,73.5,70.4,29.65,SSE,160,0.0,0.0,90,0.00,OVC,,0.33,0.0,WeatherDisplay:10.37,2013-06-26 22:44:00,
2013-06-26 17:49:00,73.7,71.2,29.65,SSE,160,0.0,0.0,92,0.00,OVC,,0.33,0.0,WeatherDisplay:10.37,2013-06-26 22:49:00,
2013-06-26 17:54:00,73.2,71.1,29.64,SSE,160,3.0,5.0,93,0.00,OVC,OVC,0.33,0.0,WeatherDisplay:10.37,2013-06-26 22:54:00,
2013-06-26 17:59:00,73.0,71.2,29.64,SSE,160,1.0,4.0,94,0.00,OVC,OVC,0.33,0.0,WeatherDisplay:10.37,2013-06-26 22:59:00,
2013-06-26 18:04:00,73.0,71.2,29.64,SSE,160,0.0,2.0,94,0.00,OVC,OVC,0.33,0.0,WeatherDisplay:10.37,2013-06-26 23:04:00,
2013-06-26 18:09:00,73.0,71.5,29.64,SSE,160,3.5,3.5,95,0.00,OVC,,0.33,0.0,WeatherDisplay:10.37,2013-06-26 23:09:00,
2013-06-26 18:14:00,72.8,71.3,29.63,SSE,160,2.0,4.0,95,0.00,OVC,OVC,0.33,0.0,WeatherDisplay:10.37,2013-06-26 23:14:00,
2013-06-26 18:19:00,72.8,71.6,29.63,SSE,160,3.5,3.5,96,0.00,OVC,,0.33,0.0,WeatherDisplay:10.37,2013-06-26 23:19:00,
2013-06-26 18:25:00,73.0,71.8,29.64,WSW,238,4.6,4.6,96,0.00,OVC,,0.33,0.0,WeatherDisplay:10.37,2013-06-26 23:25:00,
2013-06-26 18:30:00,73.0,71.8,29.64,WSW,239,4.0,4.0,96,0.00,OVC,,0.33,0.0,WeatherDisplay:10.37,2013-06-26 23:30:00,
2013-06-26 18:35:00,73.0,71.8,29.65,WSW,239,3.5,3.5,96,0.00,OVC,,0.33,0.0,WeatherDisplay:10.37,2013-06-26 23:35:00,
2013-06-26 18:40:00,72.8,71.6,29.65,WSW,240,3.5,3.5,96,0.00,OVC,,0.33,0.0,WeatherDisplay:10.37,2013-06-26 23:40:00,
2013-06-26 18:45:00,72.8,71.6,29.65,WSW,240,5.8,5.8,96,0.00,OVC,,0.33,0.0,WeatherDisplay:10.37,2013-06-26 23:45:00,
2013-06-26 18:50:00,72.8,71.9,29.66,WSW,240,3.5,3.5,97,0.00,OVC,,0.33,0.0,WeatherDisplay:10.37,2013-06-26 23:50:00,
2013-06-26 18:55:00,73.2,72.3,29.66,WSW,240,5.8,5.8,97,0.00,OVC,,0.33,0.0,WeatherDisplay:10.37,2013-06-26 23:55:00,
2013-06-26 19:00:00,73.7,73.1,29.66,WSW,240,1.2,0.0,98,0.00,CLR,,0.33,0.0,WeatherDisplay:10.37,2013-06-27 00:00:00,
2013-06-26 19:06:00,73.7,72.5,29.66,WSW,240,1.2,1.2,96,0.00,CLR,,0.33,0.0,WeatherDisplay:10.37,2013-06-27 00:06:00,
2013-06-26 19:11:00,73.3,70.8,29.66,WSW,240,0.0,0.0,92,0.00,CLR,,0.33,0.0,WeatherDisplay:10.37,2013-06-27 00:11:00,
2013-06-26 19:16:00,73.7,71.9,29.66,WSW,240,1.2,0.0,94,0.00,CLR,,0.33,0.0,WeatherDisplay:10.37,2013-06-27 00:16:00,
2013-06-26 19:21:00,73.5,71.7,29.66,WSW,240,0.0,0.0,94,0.00,CLR,,0.33,0.0,WeatherDisplay:10.37,2013-06-27 00:21:00,
2013-06-26 19:26:00,73.3,71.5,29.66,WSW,240,1.2,1.2,94,0.00,CLR,,0.33,0.0,WeatherDisplay:10.37,2013-06-27 00:26:00,
2013-06-26 19:31:00,73.2,71.4,29.66,WSW,240,3.0,3.0,94,0.00,CLR,,0.33,0.0,WeatherDisplay:10.37,2013-06-27 00:31:00,
2013-06-26 19:36:00,73.2,71.4,29.66,SSW,210,4.0,4.0,94,0.00,CLR,,0.33,0.0,WeatherDisplay:10.37,2013-06-27 00:36:00,
2013-06-26 19:42:00,73.2,71.1,29.66,SSW,202,3.5,3.5,93,0.00,CLR,,0.33,0.0,WeatherDisplay:10.37,2013-06-27 00:42:00,
2013-06-26 19:47:00,73.2,71.1,29.66,SSW,202,0.0,0.0,93,0.00,CLR,,0.33,0.0,WeatherDisplay:10.37,2013-06-27 00:47:00,
2013-06-26 19:52:00,73.2,71.1,29.66,SSW,202,0.0,0.0,93,0.00,CLR,,0.33,0.0,WeatherDisplay:10.37,2013-06-27 00:52:00,
2013-06-26 19:57:00,73.2,71.1,29.66,SSW,202,0.0,0.0,93,0.00,CLR,,0.33,0.0,WeatherDisplay:10.37,2013-06-27 00:57:00,
2013-06-26 20:02:00,73.2,71.1,29.67,SSW,202,2.0,2.0,93,0.00,CLR,,0.33,0.0,WeatherDisplay:10.37,2013-06-27 01:02:00,
2013-06-26 20:07:00,73.2,71.1,29.67,SSW,202,3.5,3.5,93,0.00,CLR,,0.33,0.0,WeatherDisplay:10.37,2013-06-27 01:07:00,
2013-06-26 20:12:00,73.2,71.1,29.67,SSW,201,4.0,4.0,93,0.00,CLR,,0.33,0.0,WeatherDisplay:10.37,2013-06-27 01:12:00,
2013-06-26 20:17:00,73.0,70.9,29.67,SSW,197,2.3,2.3,93,0.00,CLR,,0.33,0.0,WeatherDisplay:10.37,2013-06-27 01:17:00,
2013-06-26 20:23:00,73.0,70.9,29.67,SSW,197,2.3,2.3,93,0.00,CLR,,0.33,0.0,WeatherDisplay:10.37,2013-06-27 01:23:00,
2013-06-26 20:28:00,72.8,70.7,29.67,SSW,197,2.3,2.3,93,0.00,CLR,,0.33,0.0,WeatherDisplay:10.37,2013-06-27 01:28:00,
2013-06-26 20:33:00,72.8,70.3,29.67,SSW,197,3.5,3.5,92,0.00,CLR,,0.33,0.0,WeatherDisplay:10.37,2013-06-27 01:33:00,
2013-06-26 20:38:00,72.7,70.2,29.67,SSW,197,2.3,2.3,92,0.00,CLR,,0.33,0.0,WeatherDisplay:10.37,2013-06-27 01:38:00,
2013-06-26 20:43:00,72.5,70.0,29.67,SSW,197,3.5,3.5,92,0.00,CLR,,0.33,0.0,WeatherDisplay:10.37,2013-06-27 01:43:00,
2013-06-26 20:48:00,72.5,70.0,29.67,SSW,197,3.5,3.5,92,0.00,CLR,,0.33,0.0,WeatherDisplay:10.37,2013-06-27 01:48:00,
2013-06-26 20:53:00,72.3,69.8,29.67,SSW,197,3.5,3.5,92,0.00,CLR,,0.33,0.0,WeatherDisplay:10.37,2013-06-27 01:53:00,
2013-06-26 20:59:00,72.1,69.6,29.67,SSW,197,3.5,3.5,92,0.00,CLR,,0.33,0.0,WeatherDisplay:10.37,2013-06-27 01:59:00,
2013-06-26 21:04:00,72.0,69.5,29.68,SSW,197,0.0,0.0,92,0.00,CLR,,0.33,0.0,WeatherDisplay:10.37,2013-06-27 02:04:00,
2013-06-26 21:09:00,71.8,69.3,29.68,SSW,197,0.0,0.0,92,0.00,CLR,,0.33,0.0,WeatherDisplay:10.37,2013-06-27 02:09:00,
2013-06-26 21:14:00,71.6,69.2,29.69,SSW,197,0.0,0.0,92,0.00,CLR,,0.33,0.0,WeatherDisplay:10.37,2013-06-27 02:14:00,
2013-06-26 21:19:00,71.6,69.2,29.69,SSW,197,0.0,0.0,92,0.00,CLR,,0.33,0.0,WeatherDisplay:10.37,2013-06-27 02:19:00,
2013-06-26 21:24:00,71.5,69.1,29.68,SSW,197,0.0,0.0,92,0.00,CLR,,0.33,0.0,WeatherDisplay:10.37,2013-06-27 02:24:00,
2013-06-26 21:29:00,71.5,69.1,29.69,SSW,197,0.0,0.0,92,0.00,CLR,,0.33,0.0,WeatherDisplay:10.37,2013-06-27 02:29:00,
2013-06-26 21:34:00,71.3,68.9,29.69,SSW,197,0.0,0.0,92,0.00,CLR,CLR,0.33,0.0,WeatherDisplay:10.37,2013-06-27 02:34:00,
2013-06-26 21:39:00,71.1,69.0,29.69,SSW,197,2.3,2.3,93,0.00,CLR,,0.33,0.0,WeatherDisplay:10.37,2013-06-27 02:39:00,
2013-06-26 21:44:00,71.1,69.0,29.69,SSW,197,0.0,1.0,93,0.00,CLR,CLR,0.33,0.0,WeatherDisplay:10.37,2013-06-27 02:44:00,
2013-06-26 21:49:00,70.9,68.8,29.70,SSW,197,0.0,0.0,93,0.00,CLR,,0.33,0.0,WeatherDisplay:10.37,2013-06-27 02:49:00,
2013-06-26 21:55:00,70.8,68.4,29.69,SSW,198,0.0,0.0,92,0.00,CLR,,0.33,0.0,WeatherDisplay:10.37,2013-06-27 02:55:00,
2013-06-26 22:00:00,70.6,68.2,29.70,SSW,197,2.3,2.3,92,0.00,CLR,,0.33,0.0,WeatherDisplay:10.37,2013-06-27 03:00:00,
2013-06-26 22:05:00,70.6,68.2,29.70,SSW,197,0.0,0.0,92,0.00,CLR,,0.33,0.0,WeatherDisplay:10.37,2013-06-27 03:05:00,
2013-06-26 22:10:00,70.4,68.0,29.70,SSW,197,0.0,0.0,92,0.00,CLR,,0.33,0.0,WeatherDisplay:10.37,2013-06-27 03:10:00,
2013-06-26 22:15:00,70.3,67.9,29.70,SSW,197,0.0,0.0,92,0.00,CLR,,0.33,0.0,WeatherDisplay:10.37,2013-06-27 03:15:00,
2013-06-26 22:20:00,69.9,67.5,29.70,SSW,197,2.0,2.0,92,0.00,CLR,,0.33,0.0,WeatherDisplay:10.37,2013-06-27 03:20:00,
2013-06-26 22:25:00,69.8,67.4,29.70,SSW,197,2.3,2.3,92,0.00,CLR,,0.33,0.0,WeatherDisplay:10.37,2013-06-27 03:25:00,
2013-06-26 22:30:00,69.4,67.0,29.69,SSW,197,4.0,4.0,92,0.00,CLR,,0.33,0.0,WeatherDisplay:10.37,2013-06-27 03:30:00,
2013-06-26 22:36:00,69.3,66.9,29.69,SSW,197,2.3,2.3,92,0.00,CLR,,0.33,0.0,WeatherDisplay:10.37,2013-06-27 03:36:00,
2013-06-26 22:41:00,69.1,66.7,29.69,SSW,197,0.0,0.0,92,0.00,CLR,,0.33,0.0,WeatherDisplay:10.37,2013-06-27 03:41:00,
2013-06-26 22:46:00,68.9,66.5,29.70,SSW,198,0.0,0.0,92,0.00,CLR,,0.33,0.0,WeatherDisplay:10.37,2013-06-27 03:46:00,
2013-06-26 22:51:00,68.8,66.4,29.71,SSW,197,1.2,1.2,92,0.00,CLR,,0.33,0.0,WeatherDisplay:10.37,2013-06-27 03:51:00,
2013-06-26 22:56:00,68.8,66.7,29.71,SSW,197,0.0,0.1,93,0.00,CLR,,0.33,0.0,WeatherDisplay:10.37,2013-06-27 03:56:00,
2013-06-26 23:01:00,68.6,66.5,29.71,SSW,197,2.0,2.0,93,0.00,CLR,,0.33,0.0,WeatherDisplay:10.37,2013-06-27 04:01:00,
2013-06-26 23:02:00,68.6,66.5,29.71,SSW,197,2.3,2.3,93,0.00,CLR,,0.33,0.0,WeatherDisplay:10.37,2013-06-27 04:02:00,
2013-06-26 23:04:00,68.6,66.5,29.71,SSW,197,3.5,3.5,93,0.00,CLR,,0.33,0.0,WeatherDisplay:10.37,2013-06-27 04:04:00,
2013-06-26 23:09:00,68.6,66.8,29.71,SSW,197,3.5,3.5,94,0.00,CLR,,0.33,0.0,WeatherDisplay:10.37,2013-06-27 04:09:00,
2013-06-26 23:14:00,68.6,66.8,29.71,SSW,197,4.0,4.0,94,0.00,CLR,,0.33,0.0,WeatherDisplay:10.37,2013-06-27 04:14:00,
2013-06-26 23:19:00,68.6,67.1,29.72,SSW,197,2.0,4.0,95,0.00,CLR,CLR,0.33,0.0,WeatherDisplay:10.37,2013-06-27 04:19:00,
2013-06-26 23:25:00,68.6,67.1,29.72,SSW,197,0.0,0.0,95,0.00,CLR,,0.33,0.0,WeatherDisplay:10.37,2013-06-27 04:25:00,
2013-06-26 23:30:00,68.6,67.1,29.71,SSW,197,2.3,2.3,95,0.00,CLR,,0.33,0.0,WeatherDisplay:10.37,2013-06-27 04:30:00,
2013-06-26 23:35:00,68.6,67.1,29.71,SSW,197,2.3,2.3,95,0.00,CLR,,0.33,0.0,WeatherDisplay:10.37,2013-06-27 04:35:00,
2013-06-26 23:40:00,68.4,66.9,29.71,SSW,197,2.3,2.3,95,0.00,CLR,,0.33,0.0,WeatherDisplay:10.37,2013-06-27 04:40:00,
2013-06-26 23:45:00,68.3,66.8,29.71,SSW,197,2.3,2.3,95,0.00,CLR,,0.33,0.0,WeatherDisplay:10.37,2013-06-27 04:45:00,
2013-06-26 23:50:00,67.9,66.1,29.71,SSW,197,2.0,2.0,94,0.00,CLR,,0.33,0.0,WeatherDisplay:10.37,2013-06-27 04:50:00,
2013-06-26 23:55:00,67.8,66.0,29.71,SSW,197,1.2,1.2,94,0.00,CLR,,0.33,0.0,WeatherDisplay:10.37,2013-06-27 04:55:00,